Погода в Карпове

Россия / Псковская область     57°22′38″N   28°21′15″E
темп.,
°C
ветер,
м/с
пор.,
м/с
влажн.,
%
обл.,
%
осадки,
мм/ч
давл.,
гПа
погр.,
м
14 июня, пн
пн1400:00+12ссз41195100 0.0 1012437
03:00+10сз3109724 0.0 1014276
06:00+10сз389698 0.0 1016234
09:00+16ссз467043 0.0 1017519
12:00+19ссз3354100 0.0 10181114
15:00+21ссз2345100 0.0 10171324
18:00+21з024470 0.0 10161492
21:00+16з227142 0.0 101619
15 июня, вт
вт1500:00+12юз22645 0.0 101514
03:00+10ююз36765 0.0 101483
06:00+11ююз4118273 0.0 1014272
09:00+16ююз61167100 0.0 1013585
12:00+20юз6962100 0.0 10121239
15:00+17з4979100 0.0 1012710
18:00+19з3672100 0.1 10121158
21:00+15зсз37762 0.1 1012173
16 июня, ср
ср1600:00+10зсз37820 0.0 1014128
03:00+9сз38920 0.0 1016151
06:00+9ссз26875 0.0 1018158
09:00+15с2464100 0.0 1019577
12:00+19сз2246100 0.0 10201345
15:00+21зсз1141100 0.0 10201463
18:00+20ююв124638 0.0 1020886
21:00+16ю22685 0.0 102035
17 июня, чт
чт1700:00+12ююз34775 0.0 102150
03:00+11юз23875 0.0 102340
06:00+12юз22815 0.0 102460
09:00+18юз23665 0.0 1024427
12:00+22ююз33495 0.0 10241248
15:00+24ю23455 0.0 10241573
18:00+24ююв33545 0.0 1024710
21:00+19ююз33715 0.0 102444
18 июня, пт
пт1800:00+15ююз22715 0.0 102420
03:00+13ююз22825 0.0 102515
06:00+14ююз25852 0.0 1025100
09:00+20ююз35660 0.0 1025399
12:00+24ююз45540 0.0 10251260
15:00+26ююз46470 0.0 10241684
18:00+26ююз35530 0.0 1023975
21:00+21ююз34740 0.0 102362